Theta_e
310 310 309 309 310 310 308 309 310 310 311 311 311 311 311 312 312 306 303 309 310 304 307 310 311 305 305 304 302 304 304 308 307 302 300 299 298 301 299 301 300 299 296 294 294 292 293 310 309 303 308 313 318 319
310 310 309 309 309 309 310 309 309 309 310 310 310 311 311 311 311 309 299 305 308 307 309 312 314 316 313 311 305 302 303 304 307 304 303 303 302 301 298 297 302 298 300 298 299 298 305 310 308 313 314 314 317 316
310 310 309 309 309 309 309 309 310 308 309 310 310 310 311 311 311 308 298 299 304 305 308 306 308 312 313 314 313 303 302 306 307 308 304 305 302 302 298 299 301 302 307 304 303 305 307 311 314 317 317 316 321 320
309 309 309 309 309 309 310 310 309 308 308 309 310 311 311 311 310 310 298 300 300 303 304 304 314 311 312 312 312 313 307 305 303 303 299 300 302 306 301 303 301 305 305 303 303 306 310 313 314 318 319 321 322 323
309 309 310 309 310 309 310 311 311 311 310 310 310 311 311 310 309 307 301 300 303 304 302 303 310 311 311 309 308 309 307 303 302 301 300 301 303 303 303 302 300 306 305 305 303 307 308 309 314 321 319 319 319 317
309 309 309 309 310 309 309 310 310 310 310 311 311 311 310 310 309 299 305 305 306 305 302 299 306 308 310 311 309 306 306 304 305 303 301 301 304 305 300 298 305 310 311 310 308 312 313 315 319 321 321 322 323 320
309 309 309 309 309 309 310 310 310 310 310 310 310 310 309 309 304 296 303 307 306 303 304 301 301 308 310 309 306 305 306 306 305 302 301 302 302 305 301 298 306 311 313 314 314 315 312 316 314 320 321 322 322 321
309 309 309 309 309 309 310 310 310 310 310 310 309 309 309 309 306 301 303 307 306 302 305 299 300 302 308 304 304 305 304 305 305 303 304 303 305 304 300 305 307 310 313 314 314 315 311 313 317 319 322 322 320 318
308 309 309 309 309 309 310 310 310 310 309 309 309 309 303 300 300 305 315 311 305 308 301 301 297 296 308 303 304 307 305 301 306 304 304 306 301 300 304 304 307 310 310 312 315 315 315 313 313 314 317 319 317 316
308 309 309 309 309 309 309 310 310 309 309 309 305 303 302 305 314 313 307 305 304 304 302 297 301 298 301 300 300 303 306 302 299 302 306 299 299 304 307 309 311 313 314 315 311 311 312 311 312 313 316 318 318 318
308 309 309 309 309 310 310 310 310 309 307 301 298 299 302 309 306 303 299 298 300 298 301 301 301 297 300 295 296 302 302 300 296 299 299 296 297 303 310 311 312 313 315 316 316 315 313 312 311 311 315 318 319 319
308 308 308 309 309 310 310 310 309 307 300 302 303 305 302 302 302 297 298 299 299 299 302 300 301 300 301 301 300 303 301 300 295 302 299 295 301 306 310 312 314 315 316 318 320 320 321 321 316 317 318 317 319 319
308 308 308 309 308 309 310 309 309 309 307 306 304 302 301 301 292 295 293 297 297 302 304 308 304 303 304 305 301 300 300 298 304 299 298 300 305 308 308 311 313 315 317 318 319 322 321 318 318 317 318 320 321 316
308 308 308 308 309 309 309 309 310 308 303 299 299 289 294 294 296 297 297 298 305 307 307 308 306 308 309 303 301 296 299 302 297 295 297 301 305 307 308 310 312 313 315 316 318 320 320 318 317 318 319 320 320 318
308 308 309 308 309 309 309 309 310 305 302 297 298 290 294 298 301 305 308 305 311 311 311 306 306 303 301 304 304 299 297 296 298 297 300 304 306 307 307 310 311 315 316 317 319 319 321 321 317 317 318 316 315 316
308 308 307 309 310 309 309 309 307 303 302 298 297 295 297 295 298 302 303 303 312 311 310 312 308 303 302 302 300 298 297 296 300 303 306 306 306 307 307 309 312 317 318 320 319 315 316 319 314 313 314 314 315 314
308 305 309 309 309 309 308 307 304 299 298 297 295 299 298 297 297 300 307 305 312 309 306 307 303 302 302 298 297 301 300 303 305 306 307 308 307 308 309 311 313 317 316 317 318 315 313 313 314 313 311 315 315 317
305 307 310 309 309 308 306 305 301 298 295 297 291 294 298 301 299 301 305 308 309 310 310 307 308 301 298 298 297 303 307 309 311 309 309 311 309 310 313 311 313 317 314 315 318 317 317 313 312 312 312 317 314 316
308 309 309 310 308 305 300 301 301 294 297 297 296 297 298 299 301 303 304 305 312 314 311 308 305 303 301 302 304 305 306 307 308 310 312 313 311 313 314 313 314 312 313 311 314 316 317 315 315 315 315 315 314 315
309 309 309 310 309 302 298 298 304 297 295 295 297 296 297 298 301 302 306 310 310 310 307 305 305 306 304 308 312 313 311 313 311 310 310 312 313 313 312 313 313 312 313 314 315 310 314 314 315 315 315 313 313 313
308 309 310 308 304 303 300 299 299 299 298 295 299 299 298 299 300 301 303 309 306 306 305 310 309 310 312 312 313 315 316 315 316 313 312 311 314 312 312 313 314 313 312 314 314 314 309 312 314 316 316 316 316 316
307 310 305 306 300 301 299 300 297 299 297 300 302 303 298 297 298 300 305 305 304 307 310 309 311 312 312 309 312 315 318 317 316 315 309 310 313 313 314 314 311 312 312 313 314 315 315 316 317 315 316 316 314 317
308 306 302 302 297 294 293 300 296 297 296 301 305 302 301 301 303 305 301 303 305 308 309 309 310 311 310 311 312 314 316 314 313 312 312 312 314 314 313 314 313 313 312 314 314 314 317 311 314 317 317 316 316 317
308 301 297 295 295 290 297 293 300 300 302 301 301 300 303 304 310 305 301 302 307 310 310 312 313 313 310 309 309 311 314 314 314 315 315 313 312 311 313 315 315 316 317 317 315 315 317 316 311 316 317 317 316 316
294 293 294 288 296 293 292 293 294 298 297 301 299 297 300 305 302 301 303 306 306 308 309 312 312 310 309 309 311 313 315 316 315 315 314 313 312 312 314 314 315 316 317 316 315 316 316 315 316 317 317 317 316 316
288 294 291 294 295 292 292 293 298 299 300 299 300 302 302 300 300 298 303 309 311 310 314 313 310 311 311 312 312 313 313 317 317 314 315 316 316 314 314 315 315 313 317 317 316 315 316 318 317 318 317 317 305 311
290 293 297 298 297 298 298 299 298 296 297 298 302 302 303 297 299 305 311 312 312 313 316 316 314 314 315 316 317 317 318 318 318 317 318 317 318 318 317 314 314 317 319 319 320 320 320 320 320 320 319 319 319 319
296 296 291 295 298 300 297 298 296 296 300 305 304 300 301 301 303 307 309 314 314 316 317 319 318 318 318 318 320 321 321 322 323 317 317 319 320 318 319 321 321 306 315 321 322 321 322 322 323 322 321 319 320 321
294 295 297 296 298 296 298 297 297 299 303 302 302 302 304 310 312 311 316 318 319 316 314 314 318 317 319 319 319 318 318 317 316 314 311 313 313 315 317 318 319 320 320 320 308 307 319 322 323 323 321 319 320 321
293 297 295 298 298 298 299 301 300 303 304 305 306 308 311 313 316 319 318 317 315 314 314 313 314 314 315 316 314 314 315 316 315 313 310 310 311 314 315 316 317 317 316 317 319 322 306 310 311 319 320 320 319 317
303 301 300 300 299 299 300 303 304 304 305 304 307 304 307 311 315 316 317 317 316 315 314 312 313 314 312 314 311 309 310 314 314 314 312 312 313 314 315 315 315 315 316 318 319 320 319 318 320 320 318 318 318 313
300 300 300 298 299 301 302 302 302 301 302 306 306 308 310 311 307 311 313 313 311 310 307 311 312 309 313 313 313 312 302 312 313 313 312 312 312 313 311 312 315 318 320 320 319 318 317 316 315 315 316 319 319 319
301 302 301 300 297 297 301 301 304 305 307 306 308 311 310 309 305 310 314 314 309 307 308 308 313 313 311 311 311 311 307 313 308 298 297 296 293 297 306 310 315 321 320 317 316 314 313 314 313 313 313 313 313 314
Wind_Speed
13 14 15 16 17 18 20 20 19 19 20 21 22 23 23 23 22 9 5 4 3 1 7 5 4 3 1 2 4 4 5 4 4 4 3 3 3 4 1 3 3 4 3 3 2 0 6 1 6 1 5 4 9 7
13 14 14 15 17 17 16 19 18 18 18 20 21 20 20 21 20 15 3 4 3 3 7 4 7 10 8 9 5 1 4 3 5 4 0 2 1 0 3 3 3 2 6 4 9 8 5 3 2 1 3 5 2 5
13 13 14 15 16 17 17 17 17 20 19 18 18 19 18 17 16 11 3 4 3 2 6 3 7 4 3 11 8 6 3 5 2 5 5 2 3 4 3 6 2 4 3 2 2 5 4 5 4 4 3 7 11 11
13 14 15 15 16 17 18 16 17 20 20 20 18 17 17 16 15 11 2 1 1 2 3 9 4 6 4 5 9 12 4 3 4 3 2 3 3 4 4 4 4 6 2 3 5 7 5 3 1 4 5 1 12 7
13 13 14 15 17 18 18 19 19 19 18 19 18 16 17 17 16 9 4 4 2 2 4 7 11 7 5 6 9 9 8 4 2 1 2 4 2 2 2 2 4 5 7 5 6 7 5 6 4 3 6 3 5 4
12 13 14 15 16 17 18 18 19 20 21 21 20 17 16 16 13 3 1 1 2 1 1 5 5 7 5 5 6 8 7 4 4 5 5 3 4 5 2 4 6 5 4 6 7 6 7 2 5 5 5 5 4 6
13 14 15 15 16 17 18 18 19 20 22 22 21 20 17 13 2 3 3 1 4 3 1 6 6 6 5 2 1 3 3 3 4 3 2 3 3 5 3 6 8 10 10 8 7 5 2 5 7 8 8 8 5 7
14 14 15 16 17 17 18 18 19 21 23 24 24 22 19 14 6 5 5 12 6 2 1 3 7 6 4 2 1 2 3 3 1 3 2 2 1 2 4 8 7 7 7 5 8 7 6 4 4 7 4 2 3 10
14 14 15 16 16 17 18 18 20 22 24 26 26 14 2 2 1 3 8 12 2 3 2 2 3 5 5 3 1 3 2 1 2 2 1 3 1 5 8 4 3 4 4 7 7 8 8 9 9 8 8 8 8 8
14 15 15 16 17 18 18 18 19 21 25 23 5 4 2 2 11 6 1 1 2 2 0 4 2 5 3 3 3 2 3 2 1 3 2 2 5 5 5 2 3 5 5 7 9 9 7 7 10 8 8 8 9 7
15 15 16 17 17 17 16 16 17 18 11 5 6 3 5 14 2 2 1 2 1 3 4 5 6 4 3 2 3 1 2 1 2 5 3 2 5 4 1 1 4 6 8 9 7 10 6 6 4 7 7 8 7 9
16 16 16 17 17 16 15 14 14 5 2 4 5 6 4 3 3 0 3 3 4 5 3 4 5 6 4 3 3 1 3 2 4 2 3 3 6 5 4 4 6 7 8 10 7 10 13 11 10 9 8 8 9 11
16 16 17 16 17 15 14 12 11 9 8 2 2 3 1 1 1 5 5 3 3 3 2 1 3 4 1 1 2 3 3 5 3 2 4 6 3 5 6 6 9 8 9 9 5 8 9 5 9 11 11 8 9 11
15 17 17 16 19 17 14 11 9 5 2 2 3 5 4 4 5 5 2 3 5 4 9 4 4 4 3 3 3 2 3 4 2 4 5 3 5 5 6 5 7 10 9 9 8 8 9 8 4 5 8 8 8 11
15 17 17 17 9 9 7 5 2 0 2 2 3 5 6 4 4 5 6 3 4 3 7 4 2 2 0 3 1 2 1 4 3 4 4 4 3 4 6 5 8 9 11 11 7 7 9 6 5 8 5 2 4 4
14 15 5 9 10 5 1 2 1 1 2 3 5 5 5 3 4 4 4 4 4 5 3 1 3 4 1 2 3 6 2 4 3 4 4 2 2 4 5 5 6 7 8 7 7 6 5 5 4 4 3 2 4 3
13 4 5 6 6 0 5 1 1 3 4 4 5 6 8 7 7 6 2 4 3 4 3 3 4 7 1 2 2 3 4 4 5 4 3 4 4 5 5 6 5 6 7 7 7 8 5 3 4 3 3 6 5 6
5 4 9 9 4 3 1 2 2 4 6 6 4 4 4 4 4 7 4 3 2 2 2 2 5 1 2 4 2 4 4 3 3 5 3 4 3 4 3 6 6 4 4 7 6 6 5 4 3 2 4 5 3 6
4 5 7 7 5 2 1 2 2 4 5 3 5 5 5 6 7 10 8 7 4 2 1 3 3 3 4 3 3 3 3 3 2 3 4 6 4 5 6 5 6 5 5 3 5 5 3 2 3 3 4 5 3 1
6 7 8 4 5 1 2 3 2 4 5 4 3 4 4 5 3 4 5 4 3 2 2 2 4 5 4 3 3 4 3 2 3 4 5 6 5 4 6 6 4 5 5 1 3 4 4 3 2 4 1 2 3 4
2 2 2 5 1 1 2 2 4 4 5 4 4 3 5 2 4 3 4 4 3 4 4 5 7 6 7 5 5 4 4 4 5 6 5 4 5 3 4 4 5 3 2 3 4 5 4 4 3 3 2 4 5 5
1 2 2 1 1 2 3 3 4 4 4 5 5 4 4 4 4 4 3 2 4 4 5 5 7 6 6 6 7 6 7 7 6 4 5 3 5 4 5 2 1 3 4 5 4 5 5 3 2 3 4 6 5 4
3 1 1 1 2 2 5 1 4 4 4 4 3 4 3 3 4 1 1 3 4 3 3 4 5 5 6 6 4 6 4 5 5 5 4 4 5 5 5 4 5 4 4 5 4 4 4 6 5 3 3 5 5 5
0 2 2 3 3 4 3 4 4 4 4 4 3 5 4 4 1 1 3 1 3 4 3 5 3 4 3 2 2 4 4 2 3 2 3 1 3 4 5 5 3 3 5 5 3 3 4 5 5 5 5 4 4 5
1 2 3 4 3 3 4 4 4 3 4 3 3 4 4 2 2 2 2 1 3 3 4 5 4 3 1 1 1 1 1 1 2 3 3 1 1 3 3 4 5 2 1 2 2 3 4 4 4 4 4 4 6 7
3 5 7 4 4 4 4 4 2 4 4 4 5 4 2 0 1 2 2 3 2 2 3 4 4 4 4 3 4 3 3 2 2 2 3 0 1 0 1 3 5 6 3 2 2 3 5 5 5 7 6 5 7 7
4 5 5 3 2 2 4 5 4 4 4 3 3 5 3 2 3 2 3 2 2 3 4 4 4 4 5 5 3 3 3 1 2 3 4 1 2 2 1 0 3 5 4 5 5 4 5 5 5 6 6 4 5 7
4 4 5 3 4 4 4 3 4 4 3 2 4 5 7 6 2 3 2 4 4 5 4 4 3 3 2 3 3 4 4 4 3 4 3 3 2 3 2 2 4 11 5 5 5 5 6 6 6 7 5 5 7 6
4 3 3 6 5 4 5 7 5 3 1 2 2 3 4 3 4 3 3 6 7 4 5 4 5 4 3 4 4 3 3 4 6 8 7 4 5 5 4 4 4 4 4 5 8 8 9 7 6 5 6 6 6 4
6 5 4 4 4 5 4 5 3 3 3 3 2 1 2 2 2 2 3 6 9 8 7 4 3 4 3 4 4 6 4 3 3 2 2 4 4 5 5 5 6 5 4 5 5 7 5 2 1 3 3 3 3 4
2 5 4 4 4 4 6 4 2 2 2 3 3 3 2 3 3 3 3 1 4 3 7 8 7 8 6 7 5 5 7 6 7 7 5 3 4 5 5 5 5 5 5 6 5 5 2 3 4 4 5 5 4 3
5 7 5 5 4 3 1 3 3 3 3 3 3 4 3 3 2 3 4 3 3 4 4 5 7 5 6 5 5 4 2 3 4 5 8 6 5 6 5 5 5 4 5 7 8 9 9 8 6 6 6 12 10 8
2 2 3 2 2 4 4 4 4 3 1 2 2 1 2 2 3 2 2 4 3 3 4 4 5 4 5 5 6 6 8 6 9 10 11 11 10 8 5 4 4 6 9 9 9 9 11 12 11 13 16 17 15 15
Wind_Direction
348 348 349 351 350 348 352 352 349 350 352 353 355 356 357 358 360 6 286 330 62 248 273 225 247 195 20 122 156 272 19 338 29 64 133 216 182 240 34 238 200 187 165 236 95 238 286 329 335 43 233 3 144 133
344 345 344 346 345 345 344 345 345 347 347 347 348 349 351 352 356 5 312 338 340 192 249 249 239 242 207 202 131 298 195 200 210 96 149 133 245 288 150 257 332 295 184 207 171 217 241 275 155 158 199 168 218 175
339 338 338 338 339 338 341 341 340 346 345 343 340 340 341 342 344 0 284 298 340 334 298 356 246 276 226 208 187 151 265 213 196 173 161 181 238 124 179 243 242 300 153 203 60 282 269 295 309 183 208 202 204 225
334 334 334 333 334 332 327 333 336 340 340 339 335 332 333 331 330 337 273 246 88 266 285 281 316 299 174 155 192 212 190 69 93 75 137 162 176 166 217 230 181 212 117 178 264 284 293 266 302 235 279 205 202 277
326 327 326 328 329 330 330 330 330 326 325 329 327 325 323 322 324 311 210 232 250 127 272 282 307 263 260 188 210 205 191 150 126 86 134 221 219 127 229 75 245 182 190 172 229 227 177 238 258 233 238 178 120 146
321 322 323 324 325 326 327 325 324 324 323 322 319 315 313 315 335 339 44 26 242 184 254 303 287 292 310 236 197 161 177 141 143 165 209 235 250 135 198 241 262 230 223 191 223 203 202 174 261 259 203 253 319 358
319 319 321 323 323 323 323 322 322 319 316 313 309 304 300 298 302 212 237 188 194 18 322 305 309 277 296 283 73 107 121 164 145 159 197 205 248 128 170 249 234 230 227 231 222 118 284 207 241 234 246 196 109 314
312 315 319 322 322 322 321 320 322 318 314 311 307 303 297 290 269 273 250 245 175 233 244 274 274 330 356 326 120 9 104 44 13 182 86 192 33 79 255 247 260 253 237 269 250 204 237 299 192 235 285 313 299 277
313 316 318 319 318 320 321 324 321 317 314 311 311 308 34 55 70 256 20 125 184 161 245 211 240 264 348 353 296 33 72 81 315 154 246 95 300 221 228 244 295 334 282 266 265 214 222 229 229 218 215 208 232 237
312 314 315 316 318 323 321 320 322 321 315 312 356 4 349 254 309 330 139 324 343 281 237 236 248 265 16 5 330 61 30 146 130 261 89 91 259 265 256 130 275 277 309 299 255 268 225 241 231 237 208 207 229 185
311 311 313 313 311 313 316 320 324 326 329 10 358 313 307 303 342 49 260 191 200 259 215 233 198 224 275 126 258 184 167 87 81 267 118 320 288 267 87 202 313 288 279 295 272 270 263 230 204 212 211 206 210 186
307 308 308 307 309 311 315 317 323 326 289 295 280 287 296 330 18 271 227 280 204 238 220 196 219 196 250 143 140 240 131 63 223 153 85 261 254 263 308 314 292 268 266 268 262 280 274 248 194 188 187 210 216 187
303 303 302 302 307 302 304 307 311 301 308 267 234 261 241 254 9 212 219 243 269 246 262 301 301 213 232 126 148 118 124 220 91 106 220 226 264 306 314 313 293 267 264 276 288 290 313 282 209 195 193 216 200 191
302 300 300 301 301 299 293 295 302 317 304 307 304 289 211 227 239 203 229 244 258 274 297 289 271 220 195 130 136 132 226 109 203 198 229 241 237 274 313 294 296 301 303 294 289 281 281 289 222 206 192 195 203 196
299 298 306 298 297 331 311 287 256 258 291 276 271 247 232 250 274 294 284 330 302 305 331 311 308 199 87 117 138 65 213 231 214 220 235 239 268 304 296 299 303 318 315 298 285 265 265 273 219 203 240 130 95 91
298 303 259 270 304 320 61 127 156 257 257 243 236 269 282 281 303 321 318 293 320 313 298 337 355 334 196 186 148 203 177 219 239 220 234 260 241 279 286 299 306 300 304 300 315 319 312 229 180 149 169 221 257 233
294 231 277 319 335 209 184 222 213 236 254 241 242 241 261 270 256 264 286 282 298 305 319 252 157 235 159 114 240 185 202 208 226 253 249 227 245 284 293 300 303 307 321 354 357 1 20 67 127 131 189 237 267 293
236 251 260 276 203 147 200 237 255 255 250 239 242 251 219 229 272 281 272 275 341 333 251 315 277 292 195 187 236 238 238 262 231 247 264 282 235 258 273 285 286 294 301 326 345 326 9 35 82 239 260 273 220 238
225 232 255 273 184 179 227 227 219 268 260 262 255 255 239 249 230 247 260 270 214 201 249 171 296 309 277 224 243 270 264 258 280 306 297 294 272 276 283 270 269 275 243 255 313 314 324 307 207 222 222 241 235 225
257 247 248 235 181 165 252 239 204 255 270 254 251 254 226 230 227 228 233 231 178 208 128 248 216 219 223 238 233 237 242 191 71 333 294 297 290 271 258 255 265 279 300 301 257 248 303 318 360 354 304 227 297 274
160 78 131 133 131 243 276 289 245 235 269 252 268 225 252 255 237 222 233 174 130 216 161 206 235 237 227 241 239 256 254 208 197 196 233 281 289 291 286 246 250 267 251 297 303 291 249 236 252 261 293 252 218 233
95 93 111 148 170 236 257 229 256 293 269 270 287 214 267 275 249 227 177 163 215 204 197 217 240 259 269 260 254 202 233 219 219 236 253 257 279 311 307 269 251 260 243 242 246 255 272 276 278 281 286 269 244 247
142 114 90 154 240 236 267 184 253 237 256 258 271 265 240 253 236 98 245 227 244 235 228 232 252 235 233 267 284 280 270 260 262 251 273 245 244 253 266 256 216 223 250 263 228 259 272 300 311 303 295 294 283 275
151 184 209 196 207 263 272 254 234 252 250 248 251 276 265 235 240 157 235 321 308 334 2 336 303 305 329 304 314 342 329 293 270 269 260 245 266 274 268 291 285 234 220 244 237 236 260 271 276 275 248 248 275 289
261 248 173 242 222 240 243 256 249 271 268 263 254 276 273 354 307 310 357 15 338 347 343 342 347 353 118 281 260 299 276 86 354 319 317 188 242 305 334 310 305 348 70 239 244 286 286 274 271 288 289 276 270 282
232 212 190 214 203 204 237 266 278 284 276 269 251 267 316 340 326 320 349 333 308 307 317 326 314 325 299 209 231 276 283 18 347 266 267 164 9 53 112 11 344 324 357 323 307 287 273 288 298 299 288 278 267 268
240 242 209 230 240 264 255 252 251 254 264 259 318 322 294 307 19 337 311 300 293 281 281 280 257 248 260 286 283 292 292 280 187 246 290 292 307 279 247 148 311 265 299 306 302 291 289 295 278 268 265 268 261 249
242 261 222 223 213 215 248 258 263 255 278 356 9 323 339 8 352 293 287 298 281 305 302 302 330 321 305 313 341 341 344 358 339 327 316 3 300 265 268 276 255 274 277 275 278 281 264 256 262 270 280 277 272 247
232 241 199 245 228 240 221 202 236 252 261 55 180 262 326 327 323 323 338 334 328 342 11 12 323 350 20 35 27 357 7 11 44 44 34 358 344 320 331 315 305 305 297 292 286 258 256 250 257 270 298 296 292 301
239 176 203 249 232 230 236 188 238 238 219 200 190 281 262 258 291 347 21 9 9 356 332 317 1 18 12 32 9 10 5 19 16 62 5 318 281 289 309 321 321 314 308 306 301 299 304 309 19 60 30 12 13 4
191 172 203 213 250 248 245 269 266 225 237 244 211 180 192 300 341 16 107 161 275 326 0 2 17 19 10 25 17 12 3 356 353 4 352 315 324 333 325 328 319 314 319 327 330 328 36 53 35 27 8 351 300 237
188 189 209 211 239 264 300 226 232 230 220 217 223 173 186 194 148 3 336 342 341 12 357 12 33 0 355 10 14 10 334 310 347 351 360 343 327 331 328 316 324 348 21 30 32 33 37 43 33 15 20 51 43 62
274 248 203 233 268 265 243 189 222 226 241 274 348 124 93 95 95 277 310 27 39 20 4 347 357 349 360 21 3 344 341 333 333 350 22 28 26 5 342 339 350 49 58 56 51 48 49 54 52 50 49 49 46 56